World > North America > United States > New York

Hourly West Harpersfield, NY Regional Weather

Feedback E-mail the Weather

Latest News

West Harpersfield, NY Weather Maps

°F °C°F °C
West Harpersfield Weather Map
UTC Time: 5/21/2022, 13:00
Your Time:

West Harpersfield, NY Regional Weather

Expires:202205211300;;326414
ASUS41 KALY 211210
RWRALY

NEW YORK STATE HOURLY WEATHER ROUNDUP
NATIONAL WEATHER SERVICE ALBANY NY
800 AM EDT SAT MAY 21 2022

NOTE: "FAIR" INDICATES FEW OR NO CLOUDS BELOW 12,000 FEET WITH NO
SIGNIFICANT WEATHER AND/OR NO OBSTRUCTIONS TO VISIBILITY.


NYZ032-033-038>043-046>054-057>066-NYZ062>081-082-084-211300-
EAST

  
CITY           SKY/WX    TMP DP  RH WIND       PRES   REMARKS
ALBANY         CLOUDY    67  63  87 SE10      29.97R                  
GLENS FALLS    CLOUDY    66  63  90 SW7       29.96R                  
POUGHKEEPSIE   CLOUDY    65  63  93 S5        29.98R FOG              
NEWBURGH       FOG       64  64 100 CALM      30.00R VSB 1/4          
MONTGOMERY     CLOUDY    63  63 100 S5        30.00R FOG              
WHITE PLAINS   FOG       64  62  93 NW5       30.01R VSB 1/4          
ISLIP          FOG       62  62 100 NW5       30.00R VSB 1/4          
NEW YORK CITY  FOG       62  61  96 CALM      30.00R VSB 1/4          
CENTRAL PARK   FOG       63  62  97 CALM      30.03R VSB 1/4          
$$


SKY/WX - Weather  TMP - Temperature  DP - Dew Point  RH - Humidity
WIND - Wind Direction/Speed PRES - Barometric Pressure VSB - Visibility
WCI - Wind Chill Index E13G22 Wind - East Wind 13 mph/Gusts of 22 mph

Trending Headlines

West Harpersfield Radar Loop



West Harpersfield Quick Facts


National Two Day Weather Forecast


E-mail the West Harpersfield Weather Forecast

Voice your opinion or tell us about page issues...